Regional Weather Roundup
Issued by NWS

Home | Current Version | Previous Version | Graphics & Text | Print | Product List | Glossary On
Versions: 1 2 3 4 5 6 7 8 9 10 11 12 13 14 15 16 17 18 19 20 21 22 23 24 25 26 27 28 29 30 31 32 33 34 35 36 37 38 39 40 41 42 43 44 45 46 47 48 49 50
000
ASUS43 KLMK 230202
RWRKY
KENTUCKY REGIONAL WEATHER ROUNDUP
NATIONAL WEATHER SERVICE LOUISVILLE KY
900 PM EST WED FEB 22 2017

NOTE "FAIR" INDICATES FEW OR NO CLOUDS BELOW 12,000 FEET
WITH NO SIGNIFICANT WEATHER AND/OR OBSTRUCTIONS TO VISIBILITY.

KYZ001>023-026-027-061>063-070>075-230300-
WESTERN AND SOUTH CENTRAL KENTUCKY

CITY           SKY/WX    TMP DP  RH WIND       PRES   REMARKS
PADUCAH        PTCLDY    63  53  70 SE5       29.79S
HENDERSON      PTCLDY    52  50  93 SW3       29.79S
OWENSBORO      CLOUDY    65  58  78 SE7       29.80F
HOPKINSVILLE   CLEAR     64  55  74 S5        29.83R
BOWLING GREEN  PTCLDY    64  56  75 S6        29.84S
GLASGOW        NOT AVBL
$$

KYZ024-025-028>034-038-045-046-053-230300-
NORTH CENTRAL KENTUCKY

CITY           SKY/WX    TMP DP  RH WIND       PRES   REMARKS
LOUISVILLE/SDF CLOUDY    67  55  65 S6        29.82S
LOUISVILLE/LOU CLOUDY    67  56  67 S5        29.83S
FORT KNOX      CLOUDY    64  57  80 S5        29.82S
$$

KYZ035>037-039>044-047>052-055>060-089>105-230300-
NORTHEAST KENTUCKY

CITY           SKY/WX    TMP DP  RH WIND       PRES   REMARKS
LEXINGTON      CLOUDY    62  55  77 S7        29.86R
COVINGTON      CLOUDY    63  56  78 S7        29.82S
FRANKFORT      CLOUDY    64  54  69 S3        29.83R
$$

KYZ054-064>069-076>088-106>120-230300-
SOUTHEAST KENTUCKY

CITY           SKY/WX    TMP DP  RH WIND       PRES   REMARKS
JACKSON        PTCLDY    57  53  86 S3        29.88R
LONDON         CLEAR     58  52  80 S6        29.90R
SOMERSET       MOCLDY    59  54  82 S3        29.89R
MIDDLESBORO    MOCLDY    56  55  94 CALM      29.92S
MONTICELLO     PTCLDY    53  52  96 W9        29.89S
$$





USA.gov is the U.S. government's official web portal to all federal, state and local government web resources and services.